Regional Weather Roundup
Issued by NWS

Home | Current Version | Previous Version | Graphics & Text | Print | Product List | Glossary On
Versions: 1 2 3 4 5 6 7 8 9 10 11 12 13 14 15 16 17 18 19 20 21 22 23 24 25 26 27 28 29 30 31 32 33 34 35 36 37 38 39 40 41 42 43 44 45 46 47 48 49 50
000
ASUS43 KIND 231109
RWRIN

WEATHER ROUNDUP FOR INDIANA
NATIONAL WEATHER SERVICE INDIANAPOLIS IN
600 AM EST SUN NOV 23 2014

NOTE: "FAIR" INDICATES FEW OR NO CLOUDS BELOW 12,000 FEET WITH NO
SIGNIFICANT WEATHER AND/OR OBSTRUCTIONS TO VISIBILITY.

* - STATION DOES NOT REPORT WEATHER SUCH AS PRECIPITATION OR FOG.

+ - STATION NOT QUALITY CONTROLLED BY THE NATIONAL WEATHER SERVICE.
    USE DATA WITH CAUTION...ESPECIALLY DEWPOINT AND RELATIVE
    HUMIDITY OBSERVATIONS.

INZ001>003-010>013-019-020-231200-
NORTHWEST INDIANA

CITY           SKY/WX    TMP DP  RH WIND       PRES   REMARKS
GARY /AIRPORT/ MOCLDY    50  43  76 S12       29.80F
KNOX *+        CLOUDY    46  42  85 SE10      29.84F
LA PORTE +     CLOUDY    48  46  94 S9        29.83F
MICHIGAN CITY+ CLOUDY    46  41  81 S9G17     29.82F
MONTICELLO +   CLOUDY    46  42  84 SE6       29.86S
RENSSELAER +   LGT RAIN  46  45  93 SE8       29.83F
VALPARAISO     MOCLDY    46  42  86 S7        29.83F

$$

LMZ046-743>745-231200-
SOUTHERN LAKE MICHIGAN

STATION/POSITION TIME  TEMP WIND        PRES
                       AIR  DIR/SP/G
                 (UTC) (F)  (DEG/KT/KT) (MB)
MICHIGAN CITY    1100   49  150/ 14/ 19   N/A

$$

INZ004-005-014>016-021>024-231200-
NORTH CENTRAL INDIANA

CITY           SKY/WX    TMP DP  RH WIND       PRES   REMARKS
GOSHEN         CLOUDY    47  44  90 SE9       29.87F
LOGANSPORT +   CLOUDY    45  39  81 SE8       29.88F
PERU/GRISSOM   CLOUDY    46  46 100 S10       29.88F
ROCHESTER +    CLOUDY    48  43  81 S9        29.88F
SOUTH BEND     CLOUDY    49  43  80 S13       29.85F
WARSAW +       CLOUDY    45  43  93 SE5       29.88F

$$

INZ006>009-017-018-025>027-231200-
NORTHEAST INDIANA

CITY           SKY/WX    TMP DP  RH WIND       PRES   REMARKS
ANGOLA *+      CLOUDY    45  34  65 S6        29.91S
AUBURN +       DRIZZLE   45  41  87 CALM      29.92F
FORT WAYNE     CLOUDY    45  42  89 SE7       29.92F
HUNTINGTON +   CLOUDY    45  42  91 S5        29.91S

$$

INZ028-029-035-036-043>045-051>053-231200-
WEST CENTRAL INDIANA

CITY           SKY/WX    TMP DP  RH WIND       PRES   REMARKS
GREENCASTLE +  PTCLDY    50  43  76 S9        29.88F
LAFAYETTE      CLOUDY    47  41  80 S6        29.85F
TERRE HAUTE    PTCLDY    49  40  71 S12       29.87F

$$

INZ030>032-037>040-046>048-054>057-064-065-231200-
CENTRAL INDIANA

CITY           SKY/WX    TMP DP  RH WIND       PRES   REMARKS
CP ATTERBURY + CLOUDY    50  37  62 S6        29.92F
FRANKFORT +    CLOUDY    46  42  86 SE6       29.89F
GREENWOOD *+   MOCLDY    46  36  66 SE9       29.90
INDIANAPOLIS   MOCLDY    47  39  74 SE8       29.88F
-EAGLE CREEK   MOCLDY    48  39  71 SE6       29.89F
KOKOMO *+      CLOUDY    45  39  81 S7        29.89F
MARION +       CLOUDY    45  40  82 S8        29.91F
MT COMFORT *+  MOCLDY    46  32  57 S10       29.91F
SHELBYVILLE    MOCLDY    50  39  66 S12       29.92F
ZIONSVILLE +   CLOUDY    48  38  70 S9        29.89F

$$

INZ033-034-041-042-049-050-058-059-231200-
EAST CENTRAL INDIANA

CITY           SKY/WX    TMP DP  RH WIND       PRES   REMARKS
MUNCIE         CLOUDY    50  40  68 S13       29.92F

$$

INZ060-061-067>069-081>083-085>088-231200-
SOUTHWEST INDIANA

CITY           SKY/WX    TMP DP  RH WIND       PRES   REMARKS
EVANSVILLE     MOCLDY    52  39  61 S10       29.92R
HUNTINGBURG *+ PTCLDY    54  39  58 S8        29.93R
WASHINGTON +   CLEAR     49  41  73 S12       29.90R

$$

INZ062-063-066-070>080-084-089>092-231200-
SOUTH CENTRAL AND SOUTHEAST INDIANA

CITY           SKY/WX    TMP DP  RH WIND       PRES   REMARKS
BLOOMINGTON    PTCLDY    48  40  73 SE9       29.90F
NORTH VERNON + CLOUDY    54  37  54 S12G20    29.94

$$




USA.gov is the U.S. government's official web portal to all federal, state and local government web resources and services.